Dewpoint
22 21 19 18 20 20 22 24 20 19 20 20 20 19 19 19 20 20 21 22 20 21 22 24 26 28 30 30 29 39 51 57 60 61 61 59 59 59 59 59 58 56 56 57
20 17 19 21 23 23 21 21 19 18 20 20 19 18 19 20 22 22 22 23 23 23 23 23 25 26 29 30 30 41 53 58 61 61 61 60 59 59 59 60 59 57 57 57
19 18 18 24 19 18 18 19 18 19 19 18 17 17 18 21 18 17 19 20 23 26 25 23 24 25 27 30 32 46 55 59 61 61 61 61 60 60 59 59 59 58 57 57
17 17 18 18 17 17 19 16 15 16 18 13 19 13 15 15 14 14 16 17 19 22 25 27 24 25 26 29 33 45 53 58 60 61 60 59 58 57 58 58 59 58 58 58
15 16 18 21 17 18 19 18 15 16 19 22 17 19 15 12 13 14 14 15 17 20 23 25 28 26 26 29 33 47 55 60 60 60 60 59 58 58 58 58 58 58 59 59
20 18 21 20 18 17 17 16 17 25 23 16 21 17 13 14 18 15 15 15 19 21 23 25 28 27 26 30 35 51 56 58 59 59 58 59 58 58 57 57 57 58 58 58
17 15 17 21 21 13 19 15 11 12 14 15 21 17 16 18 17 19 16 18 28 25 24 26 26 23 24 28 46 54 53 49 50 48 47 47 46 45 45 53 56 54 50 50
15 12 18 24 22 18 14 15 9 2 7 10 19 12 18 14 19 20 18 31 27 27 27 29 32 37 41 44 51 48 46 44 43 42 42 42 41 41 41 41 41 41 40 41
17 15 16 24 24 16 13 11 15 10 12 12 15 9 14 9 13 15 15 30 32 35 37 39 42 43 44 45 45 43 42 41 40 40 40 39 39 38 37 38 38 38 39 38
20 15 14 18 23 17 12 10 8 11 4 4 11 7 6 8 9 10 12 20 30 32 34 36 37 39 40 41 39 39 38 37 36 36 36 36 36 36 36 35 35 35 36 35
24 19 16 17 21 18 13 9 10 11 10 6 5 9 13 9 10 10 13 19 28 29 32 33 34 35 36 37 36 35 35 34 34 34 34 34 33 33 33 32 32 32 33 33
22 22 16 14 24 20 15 14 12 10 5 7 9 10 15 13 12 12 12 18 24 28 30 30 32 32 33 33 33 32 32 32 32 31 30 31 31 30 31 30 31 31 30 30
27 19 17 15 18 15 15 13 11 10 10 4 5 10 14 13 11 12 12 16 21 24 26 27 28 29 30 31 30 30 29 29 28 28 27 27 27 26 25 25 26 25 23 22
25 20 17 16 18 20 14 13 10 8 6 5 4 5 9 8 8 10 11 14 18 21 22 24 25 26 27 28 28 27 27 26 26 25 25 25 24 23 23 23 23 23 22 21
23 19 17 17 19 20 16 13 11 8 8 5 6 6 8 8 8 9 11 13 14 16 18 20 21 23 24 25 25 25 24 24 22 21 21 21 21 21 22 22 22 22 22 22
22 20 17 14 15 16 17 15 13 10 9 9 9 9 14 11 10 7 8 10 11 13 15 17 19 20 21 22 22 19 19 19 19 18 18 18 19 19 20 20 22 23 23 22
22 20 18 18 17 17 16 17 15 13 11 9 7 11 15 9 7 6 7 9 9 11 13 14 16 18 20 19 17 19 20 19 18 18 18 18 17 18 19 19 19 20 20 22
21 19 16 20 19 14 24 21 19 16 13 13 13 13 15 11 12 10 10 9 10 11 13 14 16 17 18 18 18 15 14 15 17 17 17 17 16 17 17 16 17 18 19 19
23 20 18 21 19 21 21 18 17 17 17 15 13 13 14 18 18 12 10 11 10 11 12 14 15 16 16 16 16 16 16 15 15 15 16 16 16 15 16 16 16 16 16 16
22 18 21 19 18 16 22 21 21 20 19 17 15 13 12 16 15 11 9 10 10 11 12 12 14 14 14 15 13 12 13 12 12 12 12 14 14 13 13 12 11 12 12 11
18 17 19 20 20 21 21 17 17 13 21 16 13 11 9 6 9 7 7 8 9 10 10 10 10 11 12 13 13 12 12 12 11 11 10 9 9 10 8 8 7 7 6 7
19 20 20 13 18 14 19 15 16 19 14 13 12 10 7 6 5 5 6 6 6 7 6 6 5 5 5 6 5 6 6 8 10 10 11 12 13 10 11 13 11 11 11 9
21 20 20 19 21 19 18 18 16 17 16 15 14 10 6 1 -2 -6 -6 -4 -3 -3 -2 -0 0 1 3 5 5 5 6 7 8 9 9 11 12 12 13 13 11 10 11 9
21 22 18 19 19 21 18 18 19 17 17 14 11 7 1 -6 -9 -9 -8 -7 -5 -2 -2 0 1 1 0 2 3 3 3 4 6 7 6 6 8 9 10 8 8 11 10 10
22 23 20 18 20 19 19 18 19 18 18 14 10 6 -2 -6 -8 -8 -6 -4 -4 -3 -1 0 0 -1 -1 0 0 2 4 5 4 4 3 2 1 3 3 7 8 7 9 10
23 22 17 20 22 21 18 18 17 16 14 12 8 4 0 -3 -5 -3 -3 -3 -2 -1 -0 -0 -0 -1 -2 -1 -1 -1 1 4 5 1 -1 -2 -2 -2 -3 -2 -1 7 8 10
Lifted_Index
8 7 7 7 8 7 7 5 4 4 5 6 5 4 5 5 5 5 5 5 4 4 4 6 7 8 10 12 12 9 5 3 1 0 1 1 1 1 2 2 3 3 4 4
8 8 8 8 8 7 6 6 5 5 6 6 5 4 4 5 5 5 5 5 4 4 4 5 7 8 10 12 11 8 4 2 1 0 0 1 1 1 2 3 3 3 4 4
8 8 8 8 8 7 6 6 6 6 6 5 4 3 3 4 4 4 5 5 5 5 5 5 6 7 9 11 10 6 3 1 -0 -0 0 1 1 2 2 3 3 4 4 4
8 9 9 8 9 9 8 7 7 6 5 5 4 3 2 3 3 4 4 4 4 4 5 5 5 7 8 10 9 6 2 0 -0 -0 0 1 1 2 2 3 3 4 4 4
9 9 9 9 9 10 10 9 7 6 4 4 3 2 2 2 2 3 3 3 3 3 4 4 5 6 7 8 8 5 1 -0 -0 -0 0 1 1 2 3 3 3 3 4 4
10 10 10 10 10 11 10 8 6 4 3 2 2 2 2 2 3 2 2 2 2 3 3 3 3 4 6 7 6 3 0 -0 -0 0 1 1 2 2 3 3 3 3 3 3
9 10 11 11 11 11 9 7 3 2 1 1 1 2 2 3 4 4 2 2 2 2 2 2 2 3 3 4 3 1 -0 -0 -0 1 1 2 3 3 3 3 3 3 3 3
7 8 10 11 12 11 8 6 3 1 1 1 1 2 2 4 5 4 3 2 2 1 1 1 1 1 1 1 0 -0 -1 -0 0 1 2 3 3 4 4 3 3 3 3 3
7 8 10 11 12 11 8 6 5 3 2 1 1 2 2 3 4 4 3 2 1 1 0 1 0 -0 -1 -1 -1 -1 -1 0 1 2 3 4 4 4 5 5 5 5 5 5
8 8 10 11 11 10 8 6 5 4 2 1 1 2 2 3 3 3 2 2 1 0 0 0 0 -0 -1 -1 -1 -1 -0 1 1 2 3 4 5 5 5 6 6 7 7 7
9 8 9 10 10 9 7 6 5 3 2 1 1 2 3 4 4 3 2 2 1 1 1 1 1 -0 -1 -1 -1 -0 1 1 1 2 3 4 5 5 6 7 8 9 9 9
9 8 7 7 9 8 7 6 4 3 1 1 1 2 5 6 4 3 2 2 2 2 2 2 2 2 1 0 1 2 2 2 3 3 4 4 5 5 7 8 10 11 11 11
9 7 6 6 7 7 6 5 4 3 2 1 1 2 4 5 4 3 2 3 5 5 5 5 4 4 4 3 3 4 4 4 5 5 5 6 6 7 9 11 12 12 13 13
8 7 6 5 6 6 5 4 4 3 2 1 1 2 2 3 3 3 4 5 7 8 8 7 6 6 6 6 5 5 5 6 7 7 7 8 9 10 12 13 14 14 15 15
7 7 6 6 7 6 5 4 3 3 2 2 2 2 2 3 4 5 6 7 8 9 9 8 8 8 8 8 7 7 8 9 10 10 10 11 13 14 15 16 16 17 18 19
6 5 5 6 6 6 4 4 4 3 3 3 2 3 5 6 7 7 8 8 8 9 9 9 9 9 9 9 9 10 11 12 13 13 14 16 17 18 19 19 20 21 22 22
5 5 4 5 5 5 4 5 5 4 4 4 4 5 7 8 9 9 9 9 9 9 9 9 10 10 11 11 12 13 14 16 17 17 18 19 20 20 21 22 22 23 23 24
5 5 4 4 4 4 5 6 5 5 5 5 6 6 7 8 9 10 10 10 10 10 11 12 12 13 14 15 16 17 18 19 19 19 20 20 21 21 21 22 22 23 23 23
5 5 5 4 4 4 5 6 6 5 5 6 6 6 7 7 8 9 11 12 13 13 14 15 16 16 17 18 19 19 19 20 20 20 20 21 21 21 21 22 23 23 23 23
5 5 5 4 3 4 6 7 7 6 5 6 7 6 6 6 7 9 12 14 15 16 17 17 18 18 19 19 20 19 19 19 20 21 21 22 22 22 22 23 23 24 24 23
4 4 4 4 4 5 7 9 8 6 6 7 8 8 8 7 9 11 14 15 16 17 18 19 19 19 20 20 20 19 19 20 21 22 22 23 23 23 23 23 24 24 23 23
4 4 4 4 4 6 9 9 8 8 8 9 10 10 10 10 11 13 15 16 17 18 19 20 20 20 21 21 21 20 21 22 23 23 23 23 23 24 24 23 23 23 23 23
4 4 4 5 6 8 10 10 10 10 10 11 11 11 11 11 12 14 15 16 18 19 19 20 20 20 21 22 22 22 22 23 23 23 23 23 24 24 24 24 23 23 23 23
4 4 5 5 7 9 11 11 11 11 11 11 11 12 12 12 13 14 15 17 18 19 20 20 20 20 21 22 23 23 24 24 23 23 23 23 23 24 24 24 24 24 24 24
4 4 4 5 7 9 10 11 11 12 12 12 12 12 12 13 13 14 15 16 17 18 19 20 20 20 20 22 23 24 25 24 23 23 23 23 23 24 24 25 25 25 25 25
4 4 4 4 6 8 9 11 12 12 12 12 12 12 13 13 14 14 15 16 17 18 19 19 20 20 20 21 23 24 25 24 23 23 23 23 24 24 25 25 26 26 27 27